CW1129 Weather Reports


time (UTC)temp
C
wind
direction
speed
KPH
gust
KPH
rain 1hr
cm
rain 24hr
cm
rain mn
cm
humidity
%
barometer
mb
20260507050747 12 0.0 0.0 0.00 0.36 0.05 89 1002.4
20260507045747 12 0.0 1.6 0.05 0.36 0.05 89 1002.5
20260507044747 12 0.0 0.0 0.05 0.36 0.05 89 1002.5
20260507043807 12 0.0 0.0 0.05 0.36 0.05 89 1002.2
20260507042747 12 0.0 0.0 0.05 0.36 0.05 89 1002.3
20260507041747 12 0.0 0.0 0.05 0.36 0.05 88 1002.3
20260507040747 13 0.0 3.2 0.05 0.36 0.05 88 1002.5
20260507035746 13 203 1.6 3.2 0.00 0.30 0.30 89 1002.2
20260507034806 14 0.0 3.2 0.00 0.30 0.30 90 1002.2
20260507033747 14 0.0 0.0 0.00 0.30 0.30 90 1001.9
20260507032747 14 0.0 3.2 0.00 0.30 0.30 90 1001.5
20260507031746 14 0.0 0.0 0.00 0.30 0.30 90 1001.5
20260507030746 14 180 1.6 3.2 0.00 0.30 0.30 90 1001.3
20260507025746 15 180 1.6 3.2 0.00 0.30 0.30 91 1001.4
20260507024746 14 203 1.6 6.4 0.00 0.30 0.30 91 1001.4
20260507023746 14 0.0 0.0 0.00 0.30 0.30 90 1001.3
20260507022806 14 203 1.6 4.8 0.00 0.30 0.30 90 1001.2
20260507021746 14 0.0 4.8 0.00 0.30 0.30 90 1001.2
20260507020746 14 0.0 1.6 0.00 0.30 0.30 90 1001.1
20260507015746 14 0.0 4.8 0.00 0.30 0.30 90 1001.1
20260507014746 14 0.0 3.2 0.00 0.30 0.30 90 1001.1
20260507013746 14 0.0 4.8 0.00 0.30 0.30 90 1001.1
20260507012746 14 225 1.6 3.2 0.00 0.30 0.30 90 1001.1
20260507011806 14 225 1.6 9.7 0.00 0.30 0.30 90 1001.1
20260507010746 14 203 1.6 6.4 0.00 0.30 0.30 90 1001.2
20260507005746 14 203 1.6 6.4 0.00 0.30 0.30 90 1001.2
20260507004746 14 203 1.6 4.8 0.00 0.30 0.30 90 1001.2
20260507003746 14 225 1.6 4.8 0.00 0.30 0.30 90 1001.2
20260507002746 14 203 1.6 4.8 0.00 0.30 0.30 90 1001.0
20260507001746 14 203 1.6 4.8 0.03 0.30 0.30 90 1001.0
20260507000746 14 203 1.6 8.0 0.03 0.30 0.30 90 1001.0
20260506235806 14 0.0 3.2 0.08 0.30 0.30 90 1000.9
20260506234746 14 203 1.6 8.0 0.10 0.30 0.30 90 1000.9
20260506233746 14 225 1.6 4.8 0.13 0.30 0.30 89 1000.9
20260506232745 15 0.0 4.8 0.13 0.30 0.30 89 1000.8
20260506231745 15 0.0 4.8 0.13 0.28 0.28 89 1000.7
20260506230806 15 225 1.6 4.8 0.13 0.28 0.28 89 1000.9
20260506225746 15 203 1.6 3.2 0.08 0.23 0.23 89 1001.0
20260506224746 15 158 1.6 4.8 0.05 0.20 0.20 88 1001.0
20260506223745 15 293 1.6 11.3 0.03 0.18 0.18 88 1001.0
20260506222745 15 0.0 1.6 0.03 0.18 0.18 88 1001.2
20260506221745 15 203 1.6 4.8 0.00 0.15 0.15 87 1001.2
20260506220746 15 248 1.6 9.7 0.00 0.15 0.15 87 1001.3
20260506215745 15 270 1.6 8.0 0.00 0.15 0.15 87 1001.4
20260506214745 15 180 1.6 8.0 0.03 0.15 0.15 87 1001.4
20260506213745 15 158 1.6 4.8 0.03 0.15 0.15 86 1001.5
20260506212745 15 158 1.6 9.7 0.03 0.15 0.15 86 1001.7
20260506211745 15 203 1.6 12.9 0.05 0.15 0.15 86 1001.7
20260506210745 15 225 1.6 4.8 0.05 0.15 0.15 86 1001.9
20260506205745 15 225 1.6 8.0 0.08 0.15 0.15 86 1002.0
20260506204745 15 180 1.6 6.4 0.05 0.13 0.13 85 1002.0
20260506203745 15 180 1.6 9.7 0.05 0.13 0.13 84 1002.0
20260506202747 15 248 3.2 8.0 0.05 0.13 0.13 84 1002.0
20260506201747 15 180 3.2 8.0 0.05 0.10 0.10 83 1002.0
20260506200747 16 203 3.2 9.7 0.08 0.10 0.10 82 1002.1
20260506195747 16 225 1.6 8.0 0.05 0.08 0.08 82 1002.1
20260506194747 16 180 1.6 3.2 0.08 0.08 0.08 82 1002.1
20260506193747 16 0.0 3.2 0.08 0.08 0.08 81 1002.0
20260506192747 16 0.0 3.2 0.08 0.08 0.08 79 1002.0
20260506191807 17 248 1.6 8.0 0.05 0.05 0.05 78 1002.0
20260506190747 17 203 1.6 4.8 0.03 0.03 0.03 76 1002.1
20260506185747 18 0.0 1.6 0.03 0.03 0.03 71 1002.3
20260506184747 18 203 4.8 16.1 0.00 0.00 0.00 65 1002.3
20260506183747 19 225 4.8 16.1 0.00 0.00 0.00 60 1002.4
20260506182747 20 203 3.2 11.3 0.00 0.00 0.00 58 1002.4
20260506181747 20 248 4.8 11.3 0.00 0.00 0.00 52 1002.4
20260506180747 21 180 4.8 17.7 0.00 0.00 0.00 48 1002.4
20260506175747 21 203 3.2 8.0 0.00 0.00 0.00 47 1002.5
20260506174807 22 225 4.8 12.9 0.00 0.00 0.00 45 1002.5
20260506173747 22 203 3.2 19.3 0.00 0.00 0.00 43 1002.4
20260506172807 22 225 3.2 9.7 0.00 0.00 0.00 43 1002.4
20260506171747 22 225 6.4 11.3 0.00 0.00 0.00 42 1002.4
20260506170746 22 225 3.2 9.7 0.00 0.00 0.00 44 1002.6
20260506165746 22 225 3.2 12.9 0.00 0.00 0.00 47 1002.9
20260506164747 21 248 1.6 8.0 0.00 0.00 0.00 47 1002.9
20260506163746 21 203 3.2 9.7 0.00 0.00 0.00 48 1003.1
20260506162746 21 180 3.2 9.7 0.00 0.00 0.00 48 1003.3
20260506161747 21 203 3.2 9.7 0.00 0.00 0.00 48 1003.3
20260506160806 21 158 3.2 9.7 0.00 0.00 0.00 49 1003.5
20260506155747 21 203 3.2 11.3 0.00 0.00 0.00 48 1003.8
20260506154746 21 203 3.2 9.7 0.00 0.00 0.00 49 1003.8
20260506153746 21 203 3.2 8.0 0.00 0.00 0.00 51 1004.0
20260506152746 21 225 1.6 4.8 0.00 0.00 0.00 52 1004.2
20260506151747 20 203 3.2 11.3 0.00 0.00 0.00 51 1004.2
20260506150746 20 203 3.2 9.7 0.00 0.00 0.00 52 1004.3
20260506145746 20 180 1.6 8.0 0.00 0.00 0.00 53 1004.6
20260506144746 20 225 4.8 12.9 0.00 0.00 0.00 54 1004.6
20260506143806 20 225 4.8 12.9 0.00 0.00 0.00 54 1004.5
20260506140746 20 225 3.2 16.1 0.00 0.00 0.00 54 1004.2
20260506135746 20 203 3.2 9.7 0.00 0.00 0.00 57 1004.5
20260506134746 19 248 3.2 9.7 0.00 0.00 0.00 59 1004.4
20260506133746 18 248 1.6 8.0 0.00 0.00 0.00 61 1004.8
20260506132746 18 225 1.6 8.0 0.00 0.00 0.00 62 1005.0
20260506131746 18 158 1.6 6.4 0.00 0.00 0.00 62 1005.0
20260506130806 18 158 1.6 6.4 0.00 0.00 0.00 63 1005.0
20260506125746 17 180 1.6 4.8 0.00 0.00 0.00 64 1005.0
20260506124746 17 180 3.2 8.0 0.00 0.00 0.00 65 1005.0
20260506123806 17 113 3.2 9.7 0.00 0.00 0.00 65 1005.0
20260506122745 17 203 1.6 11.3 0.00 0.00 0.00 67 1005.1
20260506121805 16 180 4.8 9.7 0.00 0.00 0.00 67 1005.1
20260506115746 16 158 1.6 4.8 0.00 0.00 0.00 69 1005.1
20260506114746 16 270 1.6 8.0 0.00 0.00 0.00 70 1005.1
20260506113805 16 180 3.2 9.7 0.00 0.00 0.00 70 1005.2
20260506112745 16 180 3.2 6.4 0.00 0.00 0.00 70 1005.4
20260506111805 16 203 3.2 8.0 0.00 0.00 0.00 70 1005.4
20260506110745 16 180 3.2 9.7 0.00 0.00 0.00 70 1005.1
20260506105745 15 158 3.2 8.0 0.00 0.00 0.00 71 1005.3
20260506104805 15 158 1.6 4.8 0.00 0.00 0.00 72 1005.3
20260506103745 15 248 1.6 9.7 0.00 0.00 0.00 73 1005.1
20260506102745 15 248 1.6 9.7 0.00 0.00 0.00 72 1005.2
20260506101805 15 158 1.6 9.7 0.00 0.00 0.00 72 1005.2
20260506100745 15 270 1.6 6.4 0.00 0.00 0.00 72 1005.0
20260506095745 15 248 1.6 8.0 0.00 0.00 0.00 71 1005.0
20260506094745 15 248 1.6 9.7 0.00 0.00 0.00 71 1005.0
20260506093747 15 225 1.6 8.0 0.00 0.00 0.00 71 1004.9
20260506092807 15 203 1.6 4.8 0.00 0.00 0.00 70 1005.0
20260506091747 15 248 1.6 6.4 0.00 0.00 0.00 70 1005.0
20260506090747 15 248 1.6 4.8 0.00 0.00 0.00 69 1004.9
20260506085747 15 158 1.6 6.4 0.00 0.00 0.00 69 1005.1
20260506084747 15 180 1.6 3.2 0.00 0.00 0.00 68 1005.1
20260506083747 15 0.0 1.6 0.00 0.00 0.00 68 1005.0
20260506082807 16 225 1.6 4.8 0.00 0.00 0.00 67 1005.0
20260506081747 16 270 1.6 6.4 0.00 0.00 0.00 66 1005.0
20260506080807 16 248 1.6 3.2 0.00 0.00 0.00 65 1005.0
20260506072746 16 225 1.6 4.8 0.00 0.00 0.00 63 1004.7
20260506071747 16 203 1.6 4.8 0.00 0.00 0.00 62 1004.7
20260506070807 17 203 3.2 9.7 0.00 0.00 0.00 61 1004.6
20260506061746 17 203 3.2 8.0 0.00 0.00 0.00 58 1004.5
20260506060806 17 203 3.2 6.4 0.00 0.00 0.00 57 1004.5